This demonstration page uses our WeatherBlox Daily Observations layout. Learn more.

Left ArrowRight Arrow

47.50024, -111.30081

Hourly Observations for April 11, 2018

Temp ( °F °C ) Dew Point ( °F °C ) Humidity (%) Winds ( mph kmh ) Pressure ( in mb ) Visibility ( mi km ) Precip ( " mm )
12:53 am 00:53 Partly Cloudy 47 8.3 36 2.2 66 66 SSW 15 24 29.72 1006 10 16 0.00 0.00
1:53 am 01:53 Cloudy 45 7.2 36 2.2 71 71 SSW 7 11 29.72 1007 10 16 0.00 0.00
2:53 am 02:53 Cloudy 47 8.3 37 2.8 69 69 SW 12 19 29.69 1006 10 16 0.00 0.00
3:53 am 03:53 Cloudy 46 7.8 37 2.8 71 71 SW 16 26 29.67 1005 10 16 0.00 0.00
4:53 am 04:53 Cloudy 45 7.2 35 1.7 68 68 SW 13 20 29.69 1005 10 16 0.00 0.00
5:53 am 05:53 Cloudy 44 6.7 33 0.6 65 65 WSW 14 22 29.72 1006 10 16 0.00 0.00
6:53 am 06:53 Mostly Cloudy 42 5.6 31 -0.6 65 65 WSW 13 20 29.72 1007 10 16 0.00 0.00
7:53 am 07:53 Cloudy 44 6.7 32 0 63 63 SW 15 24 29.75 1007 10 16 0.00 0.00
8:53 am 08:53 Mostly Sunny 47 8.3 32 0 56 56 WSW 14 22 29.75 1007 10 16 0.00 0.00
9:53 am 09:53 Sunny 48 8.9 32 0 54 54 WSW 21 33 29.76 1008 10 16 0.00 0.00
10:53 am 10:53 Sunny 53 11.7 30 -1.1 41 41 W 22 35 29.75 1008 10 16 0.00 0.00
11:53 am 11:53 Mostly Cloudy 52 11.1 27 -2.8 38 38 W 17 28 29.79 1009 10 16 0.00 0.00
12:53 pm 12:53 Mostly Cloudy 52 11.1 29 -1.7 41 41 WSW 10 17 29.77 1008 10 16 0.00 0.00
1:53 pm 13:53 Cloudy 52 11.1 28 -2.2 40 40 WSW 9 15 29.76 1008 10 16 0.00 0.03
2:53 pm 14:53 Cloudy 54 12.2 27 -2.8 35 35 NNW 8 13 29.74 1007 10 16 0.00 0.00
3:53 pm 15:53 Cloudy 54 12.2 26 -3.3 34 34 NNW 7 11 29.74 1007 10 16 0.00 0.00
4:53 pm 16:53 Cloudy 56 13.3 26 -3.3 32 32 WNW 10 17 29.72 1007 10 16 0.00 0.00
5:53 pm 17:53 Mostly Cloudy 53 11.7 27 -2.8 37 37 NNW 8 13 29.74 1007 10 16 0.00 0.00
6:53 pm 18:53 Sunny 52 11.1 28 -2.2 40 40 N 6 9 29.74 1007 10 16 0.00 0.00
7:39 pm 19:39 Sunny 47 8.3 31 -0.6 54 54 ENE 10 17 29.68 1005 10 16 0.00 0.00
7:53 pm 19:53 Mostly Sunny 46 7.8 31 -0.6 56 56 E 10 17 29.75 1008 10 16 0.00 0.00
8:53 pm 20:53 Mostly Cloudy 45 7.2 31 -0.6 58 58 ENE 13 20 29.74 1007 10 16 0.00 0.00
9:53 pm 21:53 Clear 42 5.6 31 -0.6 65 65 ENE 9 15 29.74 1007 10 16 0.00 0.00
10:53 pm 22:53 Clear 40 4.4 31 -0.6 70 70 E 14 22 29.72 1006 10 16 0.00 0.00
11:53 pm 23:53 Clear 39 3.9 29 -1.7 67 67 E 15 24 29.70 1006 10 16 0.00 0.00

Powered by AerisWeather